Regional Weather Roundup
Issued by NWS

Home | Current Version | Previous Version | Text Only | Print | Product List | Glossary Off
Versions: 1 2 3 4 5 6 7 8 9 10 11 12 13 14 15 16 17 18 19 20 21 22 23 24 25 26 27 28 29 30 31 32 33 34 35 36 37 38 39 40 41 42 43 44 45 46 47 48 49 50

000
ASUS43 KDMX 292304
RWRIA

WEATHER ROUNDUP FOR IOWA
NATIONAL WEATHER SERVICE DES MOINES IA
  ISSUED BY NWS QUAD CITIES IA IL
500 PM CST THU JAN 29 2015

NOTE: "FAIR" INDICATES FEW OR NO CLOUDS BELOW 12,000 FEET WITH NO
SIGNIFICANT WEATHER AND/OR OBSTRUCTIONS TO VISIBILITY.

* - THESE STATIONS ARE NOT NWS STATIONS...THUS NOT UNDER NWS
QUALITY CONTROL.  THEY ALSO DO NOT REPORT WEATHER SUCH
AS PRECIPITATION OR FOG.

IAZ001>003-012>014-020>022-031>034-043>046-300000-
   NORTHWEST IOWA

CITY           SKY/WX    TMP DP  RH WIND       PRES   REMARKS
CARROLL *      CLOUDY    32  25  74 NW21G26   30.41R WCI  20
CHEROKEE *     CLOUDY    31  24  76 N14G23    30.43S WCI  20
DENNISON *     CLOUDY    32  25  74 N13G21    30.42R WCI  22
LE MARS *      CLOUDY    32  23  69 N16       30.46R WCI  21
ORANGE CITY *  CLOUDY    30  21  69 NW16      30.44R WCI  19
SHELDON *      CLOUDY    28  23  80 N17G26    30.42R WCI  16
SIOUX CITY     CLOUDY    33  23  66 NW16G25   30.47R WCI  23
SPENCER        CLOUDY    29  21  72 NW20      30.42R WCI  16
STORM LAKE *   CLOUDY    30  23  74 NW22G29   30.42R WCI  17
$$

IAZ055>058-069>071-079>083-090>094-300000-
   SOUTHWEST IOWA

CITY           SKY/WX    TMP DP  RH WIND       PRES   REMARKS
ATLANTIC *     CLOUDY    34  25  69 N14       30.43R WCI  24
AUDUBON *      CLOUDY    32  25  74 NW15G24   30.43R WCI  22
CLARINDA *     MOCLDY    36  23  60 N16G22    30.46R WCI  26
COUNCIL BLFS * CLOUDY    36  27  69 NW14G22   30.43R WCI  27
CRESTON *      CLOUDY    32  25  74 NW16G26   30.41R WCI  21
HARLAN *       CLOUDY    34  27  75 NW20G28   30.47R WCI  22
LAMONI         CLOUDY    34  23  64 N13G23    30.39R WCI  25
RED OAK *      CLOUDY    37  25  60 NW16G25   30.45R WCI  28
SHENANDOAH *   CLOUDY    37  25  60 NW15G21   30.47R WCI  28
$$

IAZ047>049-059>061-072>074-084-300000-
   CENTRAL IOWA

CITY           SKY/WX    TMP DP  RH WIND       PRES   REMARKS
AMES           CLOUDY    30  21  69 N22G31    30.39R WCI  17
ANKENY *       CLOUDY    32  23  69 NW20G32   30.39R WCI  20
BOONE *        CLOUDY    30  23  74 NW24G35   30.37R WCI  16
CHARITON *     CLOUDY    34  23  64 NW18G26   30.37R WCI  23
DES MOINES     CLOUDY    34  21  59 N20G32    30.40R WCI  23
GRINNELL *     CLOUDY    32  25  74 NW25G31   30.33R WCI  19
KNOXVILLE *    CLOUDY    34  21  60 NW25G36   30.35R WCI  21
MARSHALLTOWN   CLOUDY    30  22  72 NW28G35   30.34R WCI  15
NEWTON *       CLOUDY    32  25  74 NW18G31   30.36R WCI  20
PELLA *        CLOUDY    33  24  69 NW20G30   30.37R WCI  22
PERRY *          N/A     32  24  72 N21G29    30.41R WCI  20
$$

IAZ004>006-015-016-023>025-035-036-300000-
   NORTH CENTRAL IOWA

CITY           SKY/WX    TMP DP  RH WIND       PRES   REMARKS
ALGONA *       CLOUDY    27  21  80 NW23G32   30.40R WCI  12
CLARION *      CLOUDY    28  23  80 NW31      30.37R WCI  12
ESTHERVILLE    CLOUDY    25  19  78 N26G32    30.41R WCI   9
FORT DODGE *   CLOUDY    28  19  69 NW15G24   30.41R WCI  17
MASON CITY     CLOUDY    26  18  71 NW25G36   30.35R WCI  11
FOREST CITY *  CLOUDY    27  18  69 NW22G31   30.36R WCI  12
WEBSTER CITY * LGT RAIN  28  25  86 NW25G36   30.37R WCI  14
IOWA FALLS *   CLOUDY    29  22  75 NW25G31   30.36R WCI  14
$$

IAZ007>011-017>019-026>030-037>042-050>054-066-300000-
   NORTHEAST IOWA

CITY           SKY/WX    TMP DP  RH WIND       PRES   REMARKS
CEDAR RAPIDS   CLOUDY    33  25  72 NW22G28   30.27R WCI  21
CLINTON *      CLOUDY    34  27  75 NW14      30.24R WCI  24
DECORAH *      CLOUDY    30  21  69 NW14G29   30.24R WCI  20
DUBUQUE        CLOUDY    32  23  69 NW18G28   30.20R WCI  20
MONTICELLO *   CLOUDY    34  25  69 NW21G29   30.23R WCI  22
OELWEIN *      CLOUDY    32  25  74 NW25G35   30.27R WCI  19
WATERLOO       CLOUDY    31  22  69 NW20G36   30.30R WCI  19
$$

IAZ064-065-067-068-078-300000-
   EAST CENTRAL IOWA

CITY           SKY/WX    TMP DP  RH WIND       PRES   REMARKS
DAVENPORT      CLOUDY    33  25  72 NW24G35   30.23R WCI  20
IOWA CITY      CLOUDY    34  25  69 NW12G25   30.30R WCI  25
MT. PLEASANT * CLOUDY    33  26  73 NW17G23   30.30R WCI  22
MUSCATINE *    CLOUDY    36  27  69 NW21G26   30.29R WCI  24
QUAD CITIES    CLOUDY    34  25  69 NW26G36   30.23R WCI  21
$$

IAZ062-063-075>077-085>089-095>099-300000-
   SOUTHEAST IOWA

CITY           SKY/WX    TMP DP  RH WIND       PRES   REMARKS
BURLINGTON     CLOUDY    34  27  75 NW14      30.28R WCI  25
FAIRFIELD *    CLOUDY    34  27  75 NW20G28   30.31R WCI  22
FORT MADISON * CLOUDY    34  28  80 NW15G24   30.30R WCI  24
KEOKUK *       CLOUDY    36  27  69 NW17G23   30.30R WCI  25
OTTUMWA        CLOUDY    34  24  67 NW18      30.33R WCI  23
WASHINGTON *   CLOUDY    34  28  80 NW21G28   30.30R WCI  22
$$

ABBREVIATIONS USED IN REMARKS
   TC - TEMPERATURES IN CELSIUS
  WCI - WIND CHILL INDEX
   HX - HEAT INDEX
  VSB - VISIBILITY
$$



USA.gov is the U.S. government's official web portal to all federal, state and local government web resources and services.